Location: Chimay
(50.0486°N, 4.3171°E)
Time: 17:52:52
(UTC+00:00)

Cosmos 2221 Rocket - Pass Details

Date: 08 August 2020
Orbit: 621 x 647 km, 82.5° (Epoch: 25 September)

Event Time Altitude Azimuth Distance (km) Brightness Sun altitude
Rises 22:39:17 0° 347° (NNW) 2,929 8.5 -22.4°
Reaches altitude 10° 22:41:32 10° 345° (NNW) 2,020 7.3 -22.5°
Maximum altitude 22:45:58 66° 264° (W) 695 3.7 -22.7°
Enters shadow 22:46:30 59° 223° (SW) 732 3.7 -22.8°
